Time,TemperatureF,DewpointF,PressureIn,WindDirection,WindDirectionDegrees,WindSpeedMPH,WindSpeedGustMPH,Humidity,HourlyPrecipIn,Conditions,Clouds,dailyrainin,SoftwareType,DateUTC
2013-01-13 00:03:00,71.0,-99.9,-100.00,North,-999,-999.0,-999.0,-999,-99.99,,,-99.99,,2013-01-13 06:03:00,
2013-01-13 00:22:00,71.0,-99.9,29.80,North,-999,-999.0,-999.0,-999,-99.99,,,-99.99,,2013-01-13 06:22:00,
2013-01-13 00:33:00,71.0,-99.9,-100.00,North,-999,-999.0,-999.0,-999,-99.99,,,-99.99,,2013-01-13 06:33:00,
2013-01-13 00:53:00,71.0,-99.9,29.75,North,-999,-999.0,-999.0,-999,-99.99,,,-99.99,,2013-01-13 06:53:00,
2013-01-13 01:02:00,72.0,-99.9,-100.00,North,-999,-999.0,-999.0,-999,-99.99,,,-99.99,,2013-01-13 07:02:00,
2013-01-13 01:12:00,71.0,-99.9,-100.00,North,-999,-999.0,-999.0,-999,-99.99,,,-99.99,,2013-01-13 07:12:00,
2013-01-13 01:22:00,72.0,-99.9,29.76,North,-999,-999.0,-999.0,-999,-99.99,,,-99.99,,2013-01-13 07:22:00,
2013-01-13 01:33:00,72.0,-99.9,-100.00,North,-999,-999.0,-999.0,-999,-99.99,,,-99.99,,2013-01-13 07:33:00,
2013-01-13 01:42:00,72.0,-99.9,29.80,North,-999,-999.0,-999.0,-999,-99.99,,,-99.99,,2013-01-13 07:42:00,
2013-01-13 02:22:00,72.0,-99.9,29.84,North,-999,-999.0,-999.0,-999,-99.99,,,-99.99,,2013-01-13 08:22:00,
2013-01-13 02:32:00,72.0,-99.9,29.84,North,-999,-999.0,-999.0,-999,-99.99,,,-99.99,,2013-01-13 08:32:00,
2013-01-13 02:42:00,72.0,-99.9,29.86,North,-999,-999.0,-999.0,-999,-99.99,,,-99.99,,2013-01-13 08:42:00,
2013-01-13 02:53:00,73.0,-99.9,29.86,North,-999,-999.0,-999.0,-999,-99.99,,,-99.99,,2013-01-13 08:53:00,
2013-01-13 03:02:00,73.0,-99.9,29.86,North,-999,-999.0,-999.0,-999,-99.99,,,-99.99,,2013-01-13 09:02:00,
2013-01-13 03:22:00,72.0,-99.9,29.86,North,-999,-999.0,-999.0,-999,-99.99,,,-99.99,,2013-01-13 09:22:00,
2013-01-13 03:53:00,71.0,-99.9,29.86,North,-999,-999.0,-999.0,-999,-99.99,,,-99.99,,2013-01-13 09:53:00,
2013-01-13 04:03:00,71.0,-99.9,-100.00,North,-999,-999.0,-999.0,-999,-99.99,,,-99.99,,2013-01-13 10:03:00,
2013-01-13 04:22:00,70.0,-99.9,29.85,North,-999,-999.0,-999.0,-999,-99.99,,,-99.99,,2013-01-13 10:22:00,
2013-01-13 04:42:00,70.0,-99.9,29.84,North,-999,-999.0,-999.0,-999,-99.99,,,-99.99,,2013-01-13 10:42:00,
2013-01-13 05:22:00,70.0,-99.9,29.84,North,-999,-999.0,-999.0,-999,-99.99,,,-99.99,,2013-01-13 11:22:00,
2013-01-13 05:33:00,70.0,-99.9,-100.00,North,-999,-999.0,-999.0,-999,-99.99,,,-99.99,,2013-01-13 11:33:00,
2013-01-13 05:53:00,69.0,-99.9,29.84,North,-999,-999.0,-999.0,-999,-99.99,,,-99.99,,2013-01-13 11:53:00,
2013-01-13 06:03:00,69.0,-99.9,-100.00,North,-999,-999.0,-999.0,-999,-99.99,,,-99.99,,2013-01-13 12:03:00,
2013-01-13 06:22:00,69.0,-99.9,29.85,North,-999,-999.0,-999.0,-999,-99.99,,,-99.99,,2013-01-13 12:22:00,
2013-01-13 06:33:00,70.0,-99.9,-100.00,North,-999,-999.0,-999.0,-999,-99.99,,,-99.99,,2013-01-13 12:33:00,
2013-01-13 06:53:00,70.0,-99.9,29.86,North,-999,-999.0,-999.0,-999,-99.99,,,-99.99,,2013-01-13 12:53:00,
2013-01-13 07:03:00,69.0,-99.9,-100.00,North,-999,-999.0,-999.0,-999,-99.99,,,-99.99,,2013-01-13 13:03:00,
2013-01-13 07:22:00,69.0,-99.9,29.86,North,-999,-999.0,-999.0,-999,-99.99,,,-99.99,,2013-01-13 13:22:00,
2013-01-13 07:43:00,69.0,-99.9,-100.00,North,-999,-999.0,-999.0,-999,-99.99,,,-99.99,,2013-01-13 13:43:00,
2013-01-13 07:53:00,70.0,-99.9,29.87,North,-999,-999.0,-999.0,-999,-99.99,,,-99.99,,2013-01-13 13:53:00,
2013-01-13 08:03:00,69.0,-99.9,-100.00,North,-999,-999.0,-999.0,-999,-99.99,,,-99.99,,2013-01-13 14:03:00,
2013-01-13 08:13:00,69.0,-99.9,29.88,North,-999,-999.0,-999.0,-999,-99.99,,,-99.99,,2013-01-13 14:13:00,
2013-01-13 08:23:00,69.0,-99.9,29.88,North,-999,-999.0,-999.0,-999,-99.99,,,-99.99,,2013-01-13 14:23:00,
2013-01-13 08:33:00,69.0,-99.9,-100.00,North,-999,-999.0,-999.0,-999,-99.99,,,-99.99,,2013-01-13 14:33:00,
2013-01-13 08:53:00,56.0,-99.9,29.92,North,-999,-999.0,-999.0,-999,-99.99,,,-99.99,,2013-01-13 14:53:00,
2013-01-13 09:03:00,55.0,-99.9,-100.00,North,-999,-999.0,-999.0,-999,-99.99,,,-99.99,,2013-01-13 15:03:00,
2013-01-13 09:23:00,52.0,-99.9,29.94,North,-999,-999.0,-999.0,-999,-99.99,,,-99.99,,2013-01-13 15:23:00,
2013-01-13 09:53:00,50.0,-99.9,29.97,North,-999,-999.0,-999.0,-999,-99.99,,,-99.99,,2013-01-13 15:53:00,
2013-01-13 10:04:00,50.0,-99.9,29.98,North,-999,-999.0,-999.0,-999,-99.99,,,-99.99,,2013-01-13 16:04:00,
2013-01-13 10:23:00,48.0,-99.9,29.96,North,-999,-999.0,-999.0,-999,-99.99,,,-99.99,,2013-01-13 16:23:00,
2013-01-13 10:53:00,47.0,-99.9,30.00,North,-999,-999.0,-999.0,-999,-99.99,,,-99.99,,2013-01-13 16:53:00,
2013-01-13 11:13:00,47.0,-99.9,30.00,North,-999,-999.0,-999.0,-999,-99.99,,,-99.99,,2013-01-13 17:13:00,
2013-01-13 11:43:00,47.0,-99.9,30.00,North,-999,-999.0,-999.0,-999,-99.99,,,-99.99,,2013-01-13 17:43:00,
2013-01-13 11:53:00,47.0,-99.9,29.99,North,-999,-999.0,-999.0,-999,-99.99,,,-99.99,,2013-01-13 17:53:00,
2013-01-13 12:03:00,47.0,-99.9,-100.00,North,-999,-999.0,-999.0,-999,-99.99,,,-99.99,,2013-01-13 18:03:00,
2013-01-13 12:23:00,47.0,-99.9,29.99,North,-999,-999.0,-999.0,-999,-99.99,,,-99.99,,2013-01-13 18:23:00,
2013-01-13 12:43:00,47.0,-99.9,29.98,North,-999,-999.0,-999.0,-999,-99.99,,,-99.99,,2013-01-13 18:43:00,
2013-01-13 13:03:00,47.0,-99.9,-100.00,North,-999,-999.0,-999.0,-999,-99.99,,,-99.99,,2013-01-13 19:03:00,
2013-01-13 13:12:00,47.0,-99.9,29.98,North,-999,-999.0,-999.0,-999,-99.99,,,-99.99,,2013-01-13 19:12:00,
2013-01-13 13:23:00,47.0,-99.9,-100.00,North,-999,-999.0,-999.0,-999,-99.99,,,-99.99,,2013-01-13 19:23:00,
2013-01-13 13:43:00,47.0,-99.9,30.00,North,-999,-999.0,-999.0,-999,-99.99,,,-99.99,,2013-01-13 19:43:00,
2013-01-13 13:53:00,47.0,-99.9,29.99,North,-999,-999.0,-999.0,-999,-99.99,,,-99.99,,2013-01-13 19:53:00,
2013-01-13 14:03:00,47.0,-99.9,-100.00,North,-999,-999.0,-999.0,-999,-99.99,,,-99.99,,2013-01-13 20:03:00,
2013-01-13 14:23:00,48.0,-99.9,30.00,North,-999,-999.0,-999.0,-999,-99.99,,,-99.99,,2013-01-13 20:23:00,
2013-01-13 14:53:00,48.0,-99.9,30.01,North,-999,-999.0,-999.0,-999,-99.99,,,-99.99,,2013-01-13 20:53:00,
2013-01-13 15:03:00,48.0,-99.9,30.01,North,-999,-999.0,-999.0,-999,-99.99,,,-99.99,,2013-01-13 21:03:00,
2013-01-13 15:23:00,47.0,-99.9,30.02,North,-999,-999.0,-999.0,-999,-99.99,,,-99.99,,2013-01-13 21:23:00,
2013-01-13 15:43:00,47.0,-99.9,30.03,North,-999,-999.0,-999.0,-999,-99.99,,,-99.99,,2013-01-13 21:43:00,
2013-01-13 16:13:00,49.0,-99.9,30.05,North,-999,-999.0,-999.0,-999,-99.99,,,-99.99,,2013-01-13 22:13:00,
2013-01-13 16:33:00,49.0,-99.9,-100.00,North,-999,-999.0,-999.0,-999,-99.99,,,-99.99,,2013-01-13 22:33:00,
2013-01-13 16:53:00,49.0,-99.9,30.05,North,-999,-999.0,-999.0,-999,-99.99,,,-99.99,,2013-01-13 22:53:00,
2013-01-13 17:23:00,48.0,-99.9,30.07,North,-999,-999.0,-999.0,-999,-99.99,,,-99.99,,2013-01-13 23:23:00,
2013-01-13 17:33:00,48.0,-99.9,30.08,North,-999,-999.0,-999.0,-999,-99.99,,,-99.99,,2013-01-13 23:33:00,
2013-01-13 17:53:00,48.0,-99.9,30.08,North,-999,-999.0,-999.0,-999,-99.99,,,-99.99,,2013-01-13 23:53:00,
2013-01-13 18:03:00,48.0,-99.9,30.09,North,-999,-999.0,-999.0,-999,-99.99,,,-99.99,,2013-01-14 00:03:00,
2013-01-13 18:13:00,48.0,-99.9,30.09,North,-999,-999.0,-999.0,-999,-99.99,,,-99.99,,2013-01-14 00:13:00,
2013-01-13 18:53:00,48.0,-99.9,30.09,North,-999,-999.0,-999.0,-999,-99.99,,,-99.99,,2013-01-14 00:53:00,
2013-01-13 19:43:00,47.0,-99.9,30.10,North,-999,-999.0,-999.0,-999,-99.99,,,-99.99,,2013-01-14 01:43:00,
2013-01-13 20:12:00,47.0,-99.9,30.11,North,-999,-999.0,-999.0,-999,-99.99,,,-99.99,,2013-01-14 02:12:00,
2013-01-13 20:43:00,47.0,-99.9,30.09,North,-999,-999.0,-999.0,-999,-99.99,,,-99.99,,2013-01-14 02:43:00,
2013-01-13 21:12:00,47.0,-99.9,30.09,North,-999,-999.0,-999.0,-999,-99.99,,,-99.99,,2013-01-14 03:12:00,
2013-01-13 21:53:00,46.0,-99.9,30.10,North,-999,-999.0,-999.0,-999,-99.99,,,-99.99,,2013-01-14 03:53:00,
2013-01-13 22:12:00,47.0,-99.9,30.12,North,-999,-999.0,-999.0,-999,-99.99,,,-99.99,,2013-01-14 04:12:00,
2013-01-13 22:53:00,46.0,-99.9,30.12,North,-999,-999.0,-999.0,-999,-99.99,,,-99.99,,2013-01-14 04:53:00,
2013-01-13 23:22:00,46.0,-99.9,30.13,North,-999,-999.0,-999.0,-999,-99.99,,,-99.99,,2013-01-14 05:22:00,
2013-01-13 23:53:00,46.0,-99.9,30.14,North,-999,-999.0,-999.0,-999,-99.99,,,-99.99,,2013-01-14 05:53:00,